OPS 4682 DEB, 38413

Orbit data source: Space-Track

OPS 4682 DEB, 38413 is space debris in LEO originally from a launch on Sat, 03 Apr 1965 UTC launched from the Air Force Western Test Range (AFWTR). Debris objects in space refer to the collection of defunct objects orbiting the Earth. Examples of debris include non-operational satellites, rocket bodies, and fragments generated from explosions, collisions, or faulty payload assembly.

Loading next visibility...
Identifier
38413, 1965-027DS
Orbit
LEO
Country
Flag of USUS
Related business
Manufacturer
Unknown
Mission
Spacecraft
Bus & Motor
Unknown
Mass
Unknown
Launch date (UTC)
1965-04-03 (61 years ago)
Launch vehicle
Unknown
Launch site
Air Force Western Test Range (AFWTR)
Object type
Payload
Rocket body
Debris
Shape & HBR
Unknown shape, 0.1 m
Radar Cross Section
Small (<0.1 m²)

Expand to show TLE details & history
Last TLE update: 22 hours ago

TLE from 22 hours ago
0 OPS 4682 DEB
1 38413U 65027DS  25293.94946649  .00000857  00000-0  28224-2 0  9991
2 38413  90.2427   4.9560 0031119 197.7736 162.2300 12.99871598 94190
Epoch: 2025-10-20T22:47Z
TLE epoch observation values (Epoch: 2025-10-20T22:47:13.904Z)
Latitude
-0.00005°
Longitude
-6.49637°
Altitude
1,288.127 km
Speed
7.201 km/s
True Right ascension
00h 19m 49s
True Declination
0° 00' 00"
Sunlit
Object was in full shadow at epoch
Visualization orbit readout
Latitude
Unknown
Longitude
Unknown
Altitude
Unknown
Speed
Unknown
Apparent Right ascension
Unknown
Apparent Declination
Unknown
Sunlit
N/A
Visualization observer readout
Local Sidereal Time
15:29:07
Azimuth
Unknown
Elevation
Unknown
Doppler factor
Unknown
Orbital elements
Apogee altitude
1,283.485 km
Perigee altitude
1,235.949 km
Semi-major axis
7,637.854 km
Eccentricity
0.00311
Inclination
90.2427°
RAAN
4.956°
Arg. of periapsis
197.7736°
True anomaly
162.33843°
Mean anomaly
162.23°
Eccentric anomaly
162.28426°
Mean motion
3.25152 °/min
Orbital period
110.72 mins
BSTAR
0.0028224
Loading maneuver chart data...
Computing Atmospheric mass density...
Loading historical data...
Loading historical data...
Loading historical data...
Loading historical data...
Loading historical data...
Loading historical data...
Loading historical data...

Documentation

Showing up to 5 results
|